RH
31 33 39 45 48 50 52 52 53 61 73 81 83 82 82 83 82 76 69 62 56 51 48 45 42 39 38 40 43 44 43 44 43 43 41 37 30 24 22 22 21 21 20 19 18 18 19 19 19 18 18 17 16 16 15 14 14 13 13 13 13 12 12 12 13 13 13 13 14 15 15 15 16 16
36 38 42 44 42 46 52 53 50 50 55 60 64 65 68 78 88 91 90 88 86 82 77 73 71 69 67 66 63 57 52 52 56 63 69 68 59 48 41 38 36 35 35 34 32 28 25 23 22 21 21 20 20 20 20 19 19 19 18 18 18 18 18 18 18 18 18 18 18 18 18 17 17 18
50 55 59 58 55 55 60 63 63 60 57 55 58 64 67 71 76 80 81 83 85 87 89 89 86 82 75 68 59 50 44 42 45 56 68 75 76 71 62 56 53 51 50 50 49 46 42 37 33 30 28 26 24 23 22 21 20 20 19 20 20 19 19 19 19 19 19 19 18 19 19 19 19 19
54 55 60 63 63 65 66 67 66 65 65 61 59 63 68 74 81 82 79 77 74 76 85 90 87 83 77 70 64 59 55 49 47 52 60 66 71 75 78 82 82 80 77 71 65 60 56 51 47 42 39 37 35 33 31 28 26 24 23 21 21 20 21 21 21 21 21 21 20 20 19 19 19 18
49 43 42 44 49 55 63 69 68 67 69 68 64 61 61 73 89 90 85 83 80 78 82 85 83 79 76 73 70 67 62 55 54 57 59 62 65 71 83 93 95 97 98 93 88 85 79 74 70 66 63 59 55 51 47 44 40 37 34 31 28 25 22 20 20 20 20 20 20 21 21 20 20 19
41 34 29 36 48 52 51 55 59 62 68 74 79 75 66 69 80 81 78 77 74 72 74 73 72 73 73 70 64 55 52 54 57 58 58 60 64 70 80 87 88 93 97 95 94 94 95 96 94 91 91 89 87 85 79 74 69 65 62 60 58 57 55 52 47 42 37 33 30 27 25 24 23 23
31 29 25 33 51 60 53 43 45 63 78 79 73 64 58 67 81 81 74 71 70 68 64 58 58 64 64 52 35 25 27 32 33 31 31 34 39 48 64 78 84 88 92 96 98 99 100 94 78 70 77 84 87 91 93 92 92 92 91 90 90 89 88 86 85 82 75 69 62 55 47 41 35 31
22 23 22 25 40 58 59 42 43 72 91 77 54 47 55 72 80 71 56 51 54 56 52 47 46 46 35 19 9 6 8 9 7 6 8 9 10 14 27 41 47 48 54 64 71 71 66 51 30 22 31 38 41 47 50 52 56 61 66 75 84 90 93 96 97 98 97 95 93 89 83 74 63 55
16 15 12 17 30 39 38 35 42 59 66 54 36 33 42 47 43 35 24 20 29 42 46 40 31 21 10 4 4 4 3 3 3 4 4 4 4 4 5 8 9 9 12 17 20 19 16 12 6 5 7 8 10 12 13 12 12 15 20 30 43 58 73 82 79 75 78 80 80 79 82 92 95 89
11 10 7 12 22 19 13 20 27 23 21 21 17 13 15 15 12 11 7 7 18 29 28 17 9 5 4 4 4 4 4 5 4 4 4 4 4 4 4 5 4 4 4 4 5 5 5 5 5 5 5 5 5 5 5 5 4 4 5 6 9 14 25 32 29 27 30 30 31 31 39 65 87 88
8 9 7 7 10 8 4 7 9 5 5 7 7 6 5 4 4 4 3 5 10 11 7 4 4 5 5 4 4 4 4 4 4 5 5 5 5 5 5 5 5 5 5 5 5 5 5 5 5 5 5 5 5 5 5 5 4 4 4 4 5 4 4 6 6 7 8 6 8 8 9 22 37 40
7 6 6 5 4 4 4 4 3 4 4 3 3 4 4 3 4 4 4 5 5 4 5 5 5 5 5 5 5 5 5 5 6 6 5 5 6 6 6 6 6 6 6 6 6 6 5 5 5 5 5 4 5 5 5 4 4 5 4 4 4 4 4 4 4 4 4 4 4 5 5 6 8 10
5 4 4 4 4 3 3 4 3 3 3 4 4 3 3 4 4 4 5 5 5 6 6 5 5 6 6 6 6 6 7 7 6 7 7 7 7 7 7 6 6 6 7 6 6 6 6 6 6 6 5 5 5 5 5 5 4 4 5 4 4 4 4 4 4 4 4 4 4 3 4 4 4 5
4 4 3 3 4 4 3 4 4 4 4 4 4 4 4 5 4 5 6 5 6 6 6 6 7 7 7 7 8 8 8 8 8 8 7 7 7 7 7 8 7 8 9 9 9 9 9 10 10 9 9 8 7 7 7 6 6 6 6 5 5 5 5 4 4 4 4 4 4 4 4 4 4 4
4 4 4 4 4 4 4 4 4 4 5 5 5 5 5 5 5 6 5 6 6 6 6 7 7 8 9 9 9 8 8 8 8 8 8 8 9 9 9 10 11 11 12 12 13 13 13 14 13 13 13 13 12 11 10 9 9 8 8 8 7 7 7 6 6 6 5 5 4 4 4 4 4 4
5 5 4 5 5 5 5 5 5 5 5 5 6 5 6 6 6 6 6 7 7 6 7 8 8 9 9 8 9 9 8 9 9 9 9 10 10 11 12 13 12 13 14 13 14 14 14 15 15 15 15 15 15 15 14 14 13 11 11 10 9 9 8 8 8 7 7 6 6 6 5 5 5 4
5 5 5 5 5 5 5 5 5 5 5 5 6 6 6 6 6 7 7 7 7 8 8 9 9 9 9 9 9 8 8 9 9 10 10 11 11 11 11 12 12 12 12 12 13 14 14 14 14 15 16 16 17 16 16 16 15 14 14 12 11 11 10 10 10 9 9 8 7 8 7 6 6 5
5 5 5 5 5 5 5 5 5 5 5 5 5 5 6 6 6 7 7 7 8 8 8 9 9 9 9 8 8 8 9 10 9 9 10 10 10 10 10 11 11 11 11 12 12 13 13 14 14 15 16 17 17 18 18 18 17 15 15 14 13 12 11 11 10 10 10 9 8 8 8 7 7 6
5 5 5 5 5 5 5 5 5 5 5 5 5 6 6 6 6 6 7 7 7 8 9 9 9 9 9 8 8 9 8 8 9 9 9 9 9 9 10 10 10 10 11 11 12 13 14 15 15 16 17 18 19 19 19 19 19 17 16 15 14 13 12 12 12 11 11 10 9 9 8 8 8 7
6 6 6 6 6 6 5 5 5 5 5 5 5 5 6 6 6 7 7 7 8 8 9 9 9 9 9 8 8 8 8 9 9 8 8 9 9 9 9 10 11 11 11 12 13 14 15 16 17 18 19 20 21 21 22 21 20 19 17 16 15 14 13 12 11 11 11 10 9 9 8 8 7 7
6 6 6 6 6 6 6 6 5 5 5 5 5 5 6 6 6 7 7 8 8 8 8 9 9 9 9 9 8 8 8 8 8 8 8 8 8 9 9 9 10 11 12 12 13 14 16 18 19 21 22 23 24 24 23 22 20 19 18 17 16 15 14 13 13 12 11 11 10 9 8 8 7 7
6 6 6 6 6 6 7 6 6 6 5 5 6 5 6 6 6 7 7 7 8 8 8 9 8 8 9 8 8 8 8 8 8 8 8 8 9 9 8 8 10 11 12 12 13 15 18 20 22 25 26 26 26 24 22 21 19 18 17 17 16 15 15 14 13 13 12 11 11 10 9 9 8 8
6 6 6 6 6 6 7 7 7 7 6 6 6 6 6 6 6 7 7 7 8 9 8 8 9 9 9 8 8 8 8 8 8 8 8 8 8 8 8 8 9 9 11 13 15 18 22 25 27 29 28 26 24 22 21 20 19 18 17 16 16 16 16 16 16 15 15 14 14 14 14 14 15 14
6 6 6 7 7 6 7 7 7 7 7 7 6 6 6 6 7 7 8 8 9 8 9 9 9 9 9 9 9 9 9 9 9 8 8 8 8 8 9 9 9 11 13 17 20 25 28 30 30 28 26 26 24 21 20 19 17 15 14 15 16 17 19 20 20 20 20 21 22 24 25 25 25 25
6 6 6 6 7 7 7 7 8 8 8 8 7 7 6 7 7 8 8 9 9 9 10 10 9 10 10 9 9 9 9 9 9 8 8 8 8 9 9 10 12 15 19 24 28 31 32 30 29 27 26 25 22 19 17 14 12 13 16 19 23 26 28 29 30 31 33 36 38 39 39 37 33 30
7 7 7 7 7 8 8 8 8 9 9 9 9 7 7 6 7 7 8 9 9 9 9 9 10 10 9 9 9 9 8 8 8 8 8 9 9 10 12 15 19 24 29 33 34 32 31 29 29 27 24 20 17 14 12 11 14 20 28 35 38 41 41 41 43 46 49 51 52 49 45 39 33 29
8 8 8 8 8 8 8 9 9 10 10 10 10 9 8 7 7 7 7 7 7 8 8 8 8 8 8 8 8 7 8 9 8 8 10 10 12 14 18 24 30 34 36 35 34 31 30 29 26 22 17 14 13 13 15 23 33 42 50 56 55 53 52 51 54 57 58 58 56 50 43 35 29 27
8 9 9 9 9 9 10 10 10 12 12 12 11 11 10 9 8 7 7 7 7 7 7 7 8 9 9 9 9 9 9 9 10 11 12 14 19 24 30 35 39 39 37 35 32 29 27 24 20 15 12 13 20 27 33 46 59 66 71 72 64 56 55 56 57 57 58 57 56 51 42 33 27 26
8 8 9 10 11 12 13 13 14 14 14 14 14 13 12 11 10 9 9 8 8 8 9 9 9 9 10 10 11 12 12 12 14 16 19 26 33 37 41 44 42 39 37 33 28 24 22 19 14 11 9 15 31 45 55 66 77 81 82 78 66 56 54 54 53 54 55 54 52 49 42 35 30 28
9 10 12 14 15 17 18 19 19 18 17 17 16 14 14 12 11 11 10 9 9 10 11 11 10 12 16 18 17 18 20 23 26 31 39 44 44 47 50 47 41 38 35 29 25 23 20 15 12 11 12 23 42 58 67 78 88 90 88 79 64 53 50 49 50 53 54 53 51 47 43 39 35 33
12 13 16 19 22 24 25 25 24 23 22 21 19 19 18 15 14 14 12 12 12 12 15 19 21 23 26 27 30 36 42 46 49 53 54 52 53 59 58 47 41 41 39 32 27 23 18 14 12 13 18 33 52 66 74 85 95 96 90 76 61 51 48 49 53 54 53 55 56 53 50 48 43 41
12 14 18 24 29 31 31 31 30 29 28 27 26 25 24 22 22 20 19 20 20 21 24 28 30 35 40 45 54 64 70 70 67 63 60 62 67 67 55 45 49 54 46 35 29 22 17 15 14 14 20 36 59 77 85 91 96 97 87 72 59 54 51 51 54 53 52 55 59 59 57 56 54 52
14 17 21 26 30 33 35 36 37 36 36 36 37 38 38 36 36 34 33 33 33 36 42 44 43 47 53 60 71 80 82 79 73 68 71 77 75 65 57 61 72 68 48 33 28 23 18 20 21 17 17 34 66 89 94 93 93 92 86 75 62 56 54 53 53 53 52 53 57 58 57 55 55 53
22 25 27 29 33 37 39 41 42 43 44 44 47 49 48 47 48 48 46 46 46 47 50 50 50 55 61 68 77 81 79 78 75 72 78 83 78 73 75 81 81 67 44 31 31 31 33 36 32 20 17 40 74 90 90 92 93 88 84 80 69 57 53 53 52 50 48 47 48 47 45 43 41 38
35 37 37 39 42 45 46 47 48 49 49 48 49 49 47 49 53 54 59 71 78 74 69 65 63 65 70 78 83 80 76 80 82 79 85 95 95 93 92 85 73 58 41 31 30 33 39 42 34 23 30 57 81 87 88 95 97 92 88 87 79 66 55 51 51 47 43 40 38 34 32 30 27 24
50 51 51 52 53 53 53 53 52 52 51 51 50 50 50 51 49 47 61 88 102 96 92 92 86 78 77 84 87 82 81 88 91 89 94 102 102 101 100 89 69 53 42 32 26 27 31 31 28 32 47 66 80 90 95 95 93 94 97 95 90 78 60 49 50 48 42 38 35 29 26 25 22 21
52 52 50 49 48 46 44 41 38 36 36 36 35 37 41 49 58 63 74 93 103 102 102 103 96 88 89 96 97 93 93 98 98 97 100 102 100 102 103 88 65 53 48 40 32 31 28 25 34 54 73 83 89 96 98 94 90 95 99 100 100 94 73 55 52 50 45 41 37 31 27 25 24 24
29 28 26 25 24 23 21 20 17 16 16 15 15 17 18 32 64 93 102 100 98 98 101 103 100 97 99 102 101 99 100 101 100 100 101 100 99 103 102 86 69 63 58 47 41 35 26 29 53 79 90 94 97 99 98 98 97 97 98 99 102 101 87 68 57 53 50 46 41 35 30 27 28 29
10 10 9 9 9 9 9 9 8 8 9 8 9 11 8 10 35 70 92 100 103 102 100 99 100 100 101 100 100 101 101 99 97 99 100 99 100 104 101 88 77 66 52 44 42 34 25 39 69 86 85 86 93 98 101 102 100 100 101 98 97 99 97 83 66 57 54 51 44 39 35 31 30 31
7 8 8 8 10 10 10 12 12 12 14 14 12 14 15 12 13 25 43 63 82 95 101 102 101 100 101 101 100 101 101 99 97 100 101 98 101 104 97 85 75 66 53 46 41 34 36 57 80 88 89 93 97 99 101 102 102 100 94 87 88 96 100 93 79 67 61 57 51 45 41 37 34 34
15 19 21 23 25 25 24 24 24 22 22 23 21 19 20 21 21 26 36 49 65 82 97 102 100 98 100 102 101 100 102 101 98 99 100 98 100 104 96 81 71 68 63 54 43 40 52 73 84 88 95 101 102 101 101 101 102 99 88 82 89 100 103 98 89 77 67 63 58 53 48 43 39 41
34 39 42 42 40 38 34 33 33 34 33 31 30 28 27 26 35 55 76 84 87 94 100 101 100 99 100 101 100 99 101 100 99 100 101 98 100 105 100 85 75 72 67 57 49 52 66 80 86 91 97 100 101 103 102 99 101 102 95 87 90 100 105 102 94 83 75 70 67 63 59 55 52 54
46 48 49 47 44 40 37 37 42 49 50 45 42 46 50 48 52 74 96 100 96 98 100 98 98 99 99 100 101 100 100 102 102 101 99 99 101 102 93 81 78 80 74 61 54 58 70 80 87 95 101 100 99 101 102 100 100 102 99 91 89 98 106 103 97 93 88 81 78 77 75 73 72 75
43 42 42 41 38 37 35 35 42 53 60 62 60 63 69 69 69 80 95 101 100 101 102 100 100 100 100 100 100 100 100 101 100 97 97 100 101 90 73 65 71 80 79 67 53 53 67 80 88 95 99 99 99 101 102 101 101 100 98 95 96 101 103 100 100 103 99 93 92 94 94 93 92 92
31 31 32 31 31 31 31 31 33 39 52 68 77 78 78 76 75 78 87 94 96 97 97 97 98 98 98 99 100 100 101 100 94 88 86 89 87 76 64 65 73 82 85 76 60 57 70 86 94 95 91 88 94 100 101 101 102 99 95 95 97 97 93 92 96 102 102 101 100 99 99 102 102 99
Wind_Speed
17 18 18 19 19 20 21 22 23 22 22 23 23 24 25 25 24 25 25 26 29 31 32 33 32 31 31 31 30 30 32 33 34 36 37 37 37 36 36 36 35 35 35 35 35 35 36 36 37 37 37 38 38 38 39 39 39 39 40 40 41 41 41 42 42 42 42 42 41 41 41 40 40 40
17 17 17 17 18 19 20 20 20 20 20 21 22 23 23 24 24 23 23 24 27 30 29 29 29 29 29 28 27 27 28 28 30 32 34 36 36 36 37 37 37 38 38 38 38 38 38 39 39 39 39 40 40 40 40 40 41 41 41 41 42 42 42 43 43 44 44 44 43 43 43 43 42 42
17 17 17 17 18 18 19 19 19 20 20 21 21 21 21 22 22 23 23 23 26 27 26 25 25 26 26 26 26 26 27 26 26 27 28 29 31 33 35 36 38 39 40 40 40 40 40 41 41 41 42 42 42 42 42 42 42 43 43 43 44 44 44 45 45 46 46 46 46 46 46 45 45 45
17 17 18 18 19 20 20 20 21 22 22 22 22 22 22 23 23 23 23 23 25 26 26 25 26 27 27 28 28 28 27 26 26 25 24 24 25 27 29 32 34 36 37 37 38 39 40 41 41 42 43 44 45 45 45 45 45 44 44 44 44 45 45 46 46 47 47 47 47 47 47 47 47 47
17 19 19 19 19 20 21 22 22 23 23 24 24 23 24 24 22 22 23 24 24 25 26 26 27 28 29 29 29 28 27 26 25 24 23 23 23 22 24 26 27 28 29 30 31 32 34 36 38 40 41 43 44 46 47 47 47 47 47 47 47 46 47 47 47 47 47 47 47 47 47 48 48 48
20 22 22 20 19 20 21 22 23 23 23 23 24 24 25 26 25 23 24 24 24 25 26 26 27 27 26 27 27 27 26 24 23 23 23 23 22 22 21 22 22 22 24 25 25 26 28 29 30 32 33 34 36 39 41 43 44 45 45 46 46 47 47 48 49 49 49 49 49 48 48 48 48 49
21 22 22 22 22 22 21 22 23 23 23 22 23 25 26 26 25 24 23 23 24 25 26 27 27 25 24 24 24 23 23 22 21 21 21 21 21 21 21 21 22 22 22 23 23 23 24 24 25 25 27 29 30 32 34 35 36 36 36 36 37 38 39 40 42 43 45 47 47 48 49 49 49 50
22 21 22 22 23 23 23 23 23 23 23 23 24 25 26 24 24 24 24 24 24 24 25 26 26 24 23 21 20 18 17 17 17 17 17 17 17 17 18 19 20 20 21 21 21 22 22 22 22 23 24 26 27 28 29 30 31 31 32 33 33 34 34 35 36 37 39 39 40 42 43 45 47 49
23 22 23 23 23 24 24 23 23 24 24 24 24 25 25 24 23 24 23 23 21 20 21 23 23 21 19 17 17 16 15 15 16 16 16 16 16 17 17 18 19 19 20 21 21 22 22 23 24 24 25 26 27 28 29 30 31 32 33 34 34 35 35 36 36 36 37 37 37 38 40 42 43 45
23 23 24 23 23 24 24 23 24 24 24 24 23 23 23 21 20 20 19 18 17 16 17 18 19 18 17 16 17 17 17 17 18 18 18 19 20 21 21 22 23 23 23 24 25 26 27 27 28 28 29 29 30 31 32 33 33 34 35 36 36 37 38 38 38 38 38 38 38 38 40 41 40 40
23 23 24 24 24 24 23 23 23 23 22 21 20 19 18 17 16 16 16 15 15 14 15 15 16 17 18 18 18 19 20 20 21 21 22 23 25 26 26 27 28 28 29 29 30 31 32 32 33 33 34 34 35 35 36 36 37 37 38 38 39 39 40 40 41 41 41 41 41 41 41 41 40 39
23 23 22 23 23 22 22 21 21 21 20 19 18 17 17 16 16 16 16 15 15 15 15 16 17 18 19 20 20 21 22 23 24 25 26 26 28 29 29 30 31 32 33 33 34 35 36 36 37 38 39 38 39 40 40 40 41 41 42 42 42 43 43 43 43 43 43 43 44 44 44 44 43 42
22 22 21 21 21 21 21 21 20 20 20 19 19 18 18 18 18 17 17 17 17 17 17 18 19 19 21 22 23 24 25 26 27 28 28 29 30 30 31 32 33 33 34 35 35 36 37 38 39 40 41 41 41 42 42 43 43 44 44 45 45 46 46 47 47 46 46 46 45 45 46 46 46 45
22 21 21 21 21 20 21 21 21 21 21 21 20 20 20 20 20 20 20 20 20 20 20 21 21 22 24 25 26 27 28 29 29 30 30 30 31 31 31 32 33 33 34 35 36 37 37 38 39 40 41 42 42 43 43 44 44 45 46 46 47 47 48 49 49 50 50 50 50 49 48 48 48 48
22 21 21 21 21 21 21 22 22 22 23 23 23 23 22 22 22 22 22 22 22 23 23 24 25 26 27 28 28 29 30 30 31 31 31 31 32 32 32 33 33 34 36 37 38 39 39 40 41 42 42 43 44 44 45 45 46 46 47 48 48 49 49 50 51 51 52 53 53 53 53 52 52 51
22 22 22 22 22 22 23 23 24 24 25 25 25 25 25 24 24 24 24 24 25 26 27 28 28 29 30 30 30 31 31 31 32 32 33 33 34 34 35 36 37 37 38 39 41 41 42 43 44 44 44 45 46 47 47 47 48 48 49 49 50 51 51 52 52 53 53 54 55 55 56 56 56 56
23 23 23 24 25 25 25 26 26 26 27 27 27 26 26 26 26 26 27 28 29 29 30 31 31 32 32 33 33 33 33 33 34 35 36 36 37 38 39 40 41 42 43 43 44 45 45 47 48 48 47 48 49 49 50 50 51 51 51 52 52 53 53 54 54 55 55 56 56 57 57 58 59 59
25 25 26 27 28 28 29 29 29 30 29 29 29 29 29 29 29 30 31 31 32 33 33 34 34 34 35 35 36 36 36 37 37 38 39 40 41 42 43 44 45 46 47 48 49 49 50 51 52 52 52 52 53 53 53 54 54 55 55 55 56 56 57 57 57 57 58 58 58 59 59 60 60 61
27 28 29 30 31 31 32 33 33 33 33 33 32 32 32 33 33 34 34 35 36 36 36 37 37 38 38 39 39 40 40 41 42 43 44 45 46 47 48 48 49 50 51 52 53 54 54 55 56 56 56 57 57 57 57 58 59 59 59 60 60 61 61 62 62 62 62 61 61 61 61 62 62 62
29 30 31 32 33 34 35 35 36 36 36 36 36 36 36 37 37 37 38 38 39 39 40 40 41 42 42 42 43 44 44 45 46 47 48 49 49 51 52 52 53 54 55 56 57 58 58 58 59 59 60 60 61 62 62 62 62 62 63 64 64 65 66 66 66 66 66 65 65 64 64 64 64 64
32 32 33 34 34 35 36 37 38 38 39 39 39 40 40 41 41 41 42 42 43 43 44 44 45 45 46 46 47 47 48 49 50 51 51 52 53 54 55 56 57 57 58 59 60 61 61 61 62 62 63 63 64 64 65 64 65 65 65 66 66 67 67 67 67 67 66 66 65 64 64 64 64 64
35 36 36 37 37 37 38 39 39 40 41 42 42 43 44 44 45 45 46 46 47 47 48 48 49 49 50 50 50 51 52 52 53 54 55 55 56 57 58 59 60 61 61 62 62 63 63 63 64 64 64 64 65 65 65 65 66 65 65 65 64 63 63 62 62 61 61 60 59 59 58 58 58 57
39 40 40 41 41 41 41 41 41 42 43 44 45 46 46 47 48 49 49 50 50 51 51 52 52 53 53 54 54 55 55 56 56 57 57 58 58 59 60 61 62 63 64 63 64 64 64 64 64 64 64 65 65 65 64 63 63 62 62 61 60 59 58 56 55 54 53 52 50 49 48 48 48 47
43 44 44 44 44 45 45 44 44 45 45 46 48 48 49 50 51 52 52 53 54 54 55 55 56 56 57 57 57 58 58 59 59 59 60 60 60 61 62 63 63 64 65 65 64 64 64 64 64 64 63 62 63 63 62 60 60 60 59 58 57 55 52 50 48 46 45 43 42 40 40 39 39 39
47 47 48 48 48 48 48 49 48 48 48 49 50 51 52 53 54 55 56 56 57 57 58 58 59 59 60 60 60 61 61 61 61 61 61 62 62 62 63 63 64 64 64 64 63 63 63 63 61 60 59 58 58 59 60 60 59 58 56 53 50 47 44 42 41 39 38 37 36 36 35 35 35 36
49 50 50 51 51 52 52 53 53 52 52 52 53 54 55 56 57 58 58 59 60 60 60 61 61 61 62 63 63 63 63 63 63 63 63 63 63 64 64 64 64 64 63 63 63 62 60 58 56 55 55 56 57 58 58 58 56 53 49 45 42 39 38 36 35 35 34 34 34 34 34 34 34 34
52 53 54 54 55 55 56 56 56 56 55 55 55 55 56 58 59 60 60 61 61 62 62 63 63 63 64 65 65 65 65 65 65 64 64 65 65 64 64 64 63 63 62 62 60 57 54 53 52 52 53 54 56 55 54 53 50 45 41 39 36 35 34 33 32 32 32 32 32 32 32 32 32 32
55 57 57 58 58 58 59 58 58 58 58 58 58 58 58 59 60 61 61 62 62 63 64 64 63 64 64 65 66 66 66 66 66 66 66 65 65 64 64 63 62 61 59 56 54 52 50 49 49 49 51 52 51 50 49 46 43 39 37 35 33 32 31 31 31 31 32 32 31 31 30 30 31 31
58 59 60 60 60 60 59 59 59 59 59 59 59 60 60 60 61 62 62 62 62 63 63 64 64 64 64 64 65 66 66 66 66 66 65 65 64 63 62 60 57 54 52 50 49 48 45 44 45 48 49 47 46 45 44 41 39 37 36 34 32 31 30 30 30 30 30 30 29 29 28 28 29 29
59 59 59 59 59 58 58 58 57 58 58 59 59 60 60 61 62 62 62 63 62 62 62 63 63 63 63 63 63 63 64 64 64 63 62 62 61 60 57 54 51 49 48 48 46 43 40 42 45 47 46 42 41 42 40 37 37 37 35 33 31 29 29 29 28 28 28 28 27 26 26 26 26 27
60 59 59 58 57 57 56 56 57 57 57 58 58 59 60 61 62 62 63 63 63 62 62 62 61 61 61 61 61 60 60 59 59 58 57 57 55 53 51 49 47 45 46 46 43 39 39 42 44 44 42 39 39 39 37 35 34 34 32 30 29 28 28 27 26 27 28 27 26 25 25 24 25 24
61 60 59 58 57 57 56 57 57 57 57 57 58 59 60 61 62 63 63 63 63 63 63 62 61 60 59 57 56 54 54 54 53 52 51 50 49 47 47 47 44 43 44 43 41 40 41 42 42 41 39 38 38 36 32 30 30 30 28 27 27 27 27 26 26 27 27 26 25 24 24 23 23 23
61 61 60 59 58 58 57 57 57 57 57 57 57 57 58 59 60 62 63 63 63 62 62 62 61 60 58 55 52 50 49 49 49 47 46 46 46 46 46 45 43 43 43 42 41 42 42 41 40 38 39 39 36 31 27 25 26 27 27 27 27 27 27 26 25 26 26 24 23 23 23 22 22 21
61 60 60 60 59 59 59 58 57 57 57 56 56 57 58 58 59 61 62 63 63 63 63 64 63 60 58 55 52 49 47 47 46 45 45 47 47 46 46 45 44 43 41 40 41 42 42 41 40 39 41 41 36 31 27 26 25 26 27 28 29 28 28 26 25 26 25 24 22 22 22 21 20 21
60 60 60 60 59 59 59 59 59 59 58 58 59 61 62 62 61 61 60 59 61 64 65 64 62 59 56 55 52 49 47 47 46 45 46 48 48 47 46 45 44 43 40 39 40 42 43 42 42 41 41 40 36 33 31 29 28 28 27 28 29 30 29 27 26 26 25 24 23 22 22 21 21 21
60 60 61 61 61 61 61 61 61 62 62 62 62 63 63 63 64 63 59 54 53 54 56 59 61 59 56 54 52 48 45 45 45 46 47 49 49 48 46 45 43 43 42 40 40 43 44 44 42 40 39 39 39 37 35 34 34 33 30 27 28 30 30 28 27 25 25 24 24 24 23 22 22 22
62 62 63 63 64 64 64 64 64 64 64 64 64 63 62 62 62 61 58 52 50 49 50 55 60 59 55 53 51 47 45 45 45 47 50 51 50 49 47 44 43 43 42 42 42 43 44 44 42 40 38 39 39 38 38 39 40 38 33 28 27 28 30 29 28 26 25 25 25 25 25 24 23 23
64 65 65 66 66 66 66 66 66 66 65 65 63 62 61 58 56 55 54 53 53 54 55 58 58 55 53 53 51 48 47 46 45 47 50 50 49 47 45 44 43 42 42 43 44 45 44 43 41 38 37 38 39 40 41 40 37 35 33 31 28 28 29 29 29 28 27 26 26 26 26 26 25 25
64 63 64 64 64 64 64 63 63 63 62 61 60 59 58 55 53 54 55 54 53 52 52 53 51 48 49 51 48 45 44 44 44 46 47 47 47 46 44 43 43 42 42 43 44 44 44 43 40 38 38 38 39 40 41 37 31 28 31 34 34 32 31 31 31 30 29 28 28 27 27 27 27 27
57 56 55 55 55 55 54 53 53 53 53 53 53 53 52 51 50 52 55 57 56 54 52 50 46 45 48 49 45 42 42 42 42 43 43 44 45 45 43 42 43 42 42 43 42 43 44 42 40 38 38 38 38 39 40 37 34 35 38 39 38 36 34 32 32 32 31 31 30 29 29 29 28 28
45 44 43 42 41 40 40 40 41 41 42 42 43 44 44 44 44 44 45 48 52 54 54 52 48 46 47 46 44 43 43 43 43 42 41 41 42 42 41 41 42 42 42 42 41 42 42 41 38 37 37 37 37 38 39 39 39 39 39 37 36 36 36 34 33 32 32 32 32 31 31 31 30 29
35 34 33 32 31 32 32 33 34 34 35 35 36 37 39 40 40 38 36 37 40 43 45 46 45 44 44 44 44 44 45 45 44 42 40 37 36 35 37 39 40 41 41 40 41 41 40 38 37 35 34 34 35 37 39 41 41 40 39 37 35 35 36 36 35 34 33 33 33 32 32 32 32 31
29 29 29 29 29 30 30 30 30 30 30 31 32 33 34 35 35 33 31 32 35 37 39 39 39 39 40 41 42 43 43 43 41 39 37 35 34 33 34 37 39 40 40 39 40 40 39 37 35 33 32 31 32 34 38 41 42 42 40 37 35 33 34 36 36 35 34 34 34 34 33 33 33 33
28 28 29 29 29 29 29 28 28 28 28 29 30 30 29 29 28 28 27 27 29 31 32 32 32 33 35 36 38 40 40 39 38 36 36 35 34 34 35 38 40 40 40 40 39 39 39 37 34 31 29 28 28 30 33 36 38 38 36 34 32 32 32 32 33 34 35 35 35 34 34 35 35 35
28 28 28 29 29 29 29 29 28 28 27 27 27 28 27 26 25 25 25 26 26 27 28 30 31 32 33 35 37 37 36 36 36 36 35 35 35 36 39 41 42 41 40 40 39 38 37 35 32 29 28 28 28 28 29 30 32 33 32 30 30 31 31 30 30 31 33 33 33 33 33 33 34 34
Wind_Direction
294 293 292 292 292 292 291 291 291 291 290 288 287 286 286 285 282 279 278 277 276 276 276 278 279 280 280 281 281 281 280 279 278 276 274 272 269 268 267 266 265 264 263 263 263 264 265 266 267 268 269 270 270 271 271 271 271 271 270 270 270 270 271 272 272 272 272 272 272 272 272 272 272 272
295 294 294 295 297 297 296 295 294 294 292 291 289 288 288 286 284 283 282 279 277 278 280 283 284 285 285 285 285 284 284 284 284 283 281 278 274 271 270 270 269 267 266 264 262 262 262 262 263 265 265 266 267 268 268 269 270 270 270 271 271 271 271 272 272 273 273 273 273 273 273 273 273 272
299 298 299 299 300 300 298 295 293 292 291 290 289 289 288 285 283 283 284 281 280 282 285 287 287 288 288 288 288 287 287 287 287 286 284 281 278 275 274 274 274 273 271 269 266 264 263 263 263 263 264 264 265 265 265 266 266 267 268 269 270 270 271 271 272 272 273 273 273 273 273 273 273 273
302 302 301 300 299 299 296 293 291 290 288 288 288 287 287 287 285 282 281 280 280 283 286 287 288 288 289 290 290 289 287 286 286 286 284 283 281 279 279 279 280 280 279 277 274 272 270 269 268 267 267 267 266 266 266 266 266 266 267 267 268 268 269 270 270 271 272 272 273 273 273 273 273 272
303 302 300 298 296 296 294 291 290 290 289 289 289 289 289 290 289 285 284 284 284 285 286 286 287 288 289 289 289 289 288 286 286 286 286 286 284 282 281 283 285 287 287 285 283 282 280 278 276 275 273 272 270 269 268 268 268 268 268 268 268 268 268 268 269 269 269 270 271 272 272 273 272 272
303 303 303 299 294 291 291 289 288 288 287 286 287 288 288 288 288 286 285 286 287 288 287 287 286 286 287 288 289 289 289 289 289 289 288 287 286 284 283 283 283 284 285 286 288 289 289 288 287 287 286 285 283 280 277 275 274 273 273 272 272 271 271 270 269 268 268 267 267 268 269 270 271 271
299 299 300 298 292 289 289 287 287 286 284 283 283 285 285 285 284 284 284 286 287 288 287 286 285 284 285 287 288 288 289 290 291 291 290 288 287 286 284 282 282 282 282 283 286 288 291 293 296 298 297 295 294 292 290 288 285 283 282 281 280 279 278 277 275 274 273 271 269 268 267 267 267 269
300 298 296 293 290 288 287 286 285 284 283 282 282 283 283 281 278 279 281 283 284 285 284 283 283 284 286 287 286 286 288 290 291 291 292 292 292 290 288 287 289 291 289 288 289 291 293 296 298 299 297 295 295 295 295 294 293 291 290 288 286 286 286 286 286 285 283 281 279 277 274 270 268 267
301 299 296 292 289 288 287 286 283 282 282 280 279 280 280 278 276 276 278 278 277 277 276 276 279 282 285 286 286 287 289 291 293 294 296 296 296 295 293 292 293 294 293 293 295 295 294 293 294 294 294 293 293 293 294 294 294 293 292 291 290 289 289 289 288 289 289 287 287 286 284 279 274 271
298 296 294 292 290 289 289 287 284 282 281 279 277 276 277 277 277 277 277 277 274 271 269 271 275 280 284 286 288 290 292 294 295 296 297 298 297 296 295 294 293 292 293 293 294 293 292 291 291 291 291 290 289 289 290 290 289 289 289 289 289 289 290 289 288 288 288 288 287 287 288 285 281 279
295 293 292 291 291 290 289 287 285 284 283 281 279 277 277 277 276 276 277 277 275 273 272 273 275 278 282 283 286 289 291 293 294 293 294 296 296 295 296 295 295 294 294 294 293 292 292 292 292 291 290 289 289 288 287 287 286 286 286 285 285 285 286 286 286 286 287 287 286 285 286 286 285 284
291 289 288 288 288 288 288 286 285 285 284 282 281 281 281 279 276 276 276 275 275 276 277 278 278 280 282 283 284 286 287 289 291 291 291 292 293 293 293 293 293 294 294 293 293 293 292 293 293 292 291 291 291 290 288 288 287 286 286 285 284 284 284 284 284 284 284 285 285 284 284 284 284 283
289 287 286 285 285 286 287 286 286 285 284 283 281 280 280 279 279 279 278 277 277 278 278 279 280 281 283 283 285 286 287 288 289 289 290 291 292 292 292 292 293 294 294 294 294 294 294 294 294 293 292 292 292 292 291 290 290 289 288 287 286 286 285 285 285 285 284 283 283 283 283 282 282 281
290 289 288 287 286 286 286 286 286 284 283 282 280 278 277 277 278 279 279 279 278 278 278 279 280 282 283 285 287 289 290 291 291 292 292 293 293 293 294 294 295 295 295 295 295 295 296 296 295 295 294 294 293 293 292 292 291 291 290 289 289 288 287 286 286 285 285 284 283 282 281 280 280 279
290 290 289 288 287 287 286 285 284 283 282 280 279 278 277 276 275 276 276 277 277 278 280 281 284 286 288 290 291 292 293 293 294 294 295 295 295 295 296 296 296 296 296 297 297 298 298 297 296 296 296 295 295 294 293 293 292 292 291 291 290 289 288 287 286 286 285 284 284 283 282 281 279 278
290 290 290 289 288 287 286 284 283 282 281 279 278 277 276 275 274 274 274 276 278 280 283 286 288 290 292 293 294 295 295 295 295 296 296 296 296 296 296 296 297 297 296 297 297 297 297 297 296 296 297 296 296 296 295 294 293 292 292 291 290 290 289 288 287 286 285 284 283 283 282 281 280 279
292 293 293 292 291 290 288 287 285 283 281 280 278 277 276 275 275 275 276 278 281 284 286 288 290 292 294 294 295 295 295 295 295 295 296 296 296 296 296 297 297 297 297 297 296 296 296 296 296 296 296 296 296 295 295 294 294 293 292 291 291 290 290 289 288 287 286 285 284 282 281 280 279 279
293 294 295 295 295 294 293 291 288 287 284 282 279 277 276 275 275 276 278 280 282 285 287 288 290 292 293 293 294 294 294 294 294 295 296 296 297 297 297 298 298 298 298 298 298 297 296 296 296 296 296 296 296 296 295 295 294 294 293 292 292 291 291 290 289 288 287 285 284 282 281 279 278 277
293 294 295 296 296 295 294 292 290 288 286 283 281 278 277 277 277 278 279 281 283 284 286 287 289 290 291 291 292 292 293 294 294 295 296 297 297 298 298 298 299 299 299 299 298 298 297 297 297 297 297 297 297 297 297 296 296 295 295 294 294 293 292 292 291 290 288 286 284 282 280 278 277 275
290 292 294 295 295 295 293 291 289 287 285 283 281 280 279 279 278 279 280 281 282 284 285 286 287 288 289 290 291 292 293 294 295 296 296 297 297 298 298 298 298 298 298 298 298 298 298 298 298 298 298 298 298 298 298 297 297 297 296 296 295 294 294 293 292 290 289 287 285 283 281 279 277 275
288 290 292 294 294 294 293 291 288 286 284 283 281 280 280 279 279 280 280 281 282 283 284 285 286 287 288 289 290 292 293 293 294 295 295 296 296 297 297 297 297 297 297 298 298 298 298 298 298 298 298 298 299 299 298 298 298 297 297 296 296 295 293 292 291 290 288 287 285 284 282 280 278 276
288 290 291 292 293 293 293 291 288 285 283 282 281 280 280 280 280 280 280 281 282 283 284 285 286 287 288 289 290 291 291 292 293 293 294 294 295 295 296 296 296 296 297 297 297 298 298 298 299 299 299 299 299 299 299 299 298 297 297 296 295 294 293 291 290 289 288 287 286 284 283 281 279 277
288 290 290 291 291 291 292 291 289 286 283 281 280 279 279 278 278 279 279 280 281 282 283 284 285 286 287 288 289 289 290 291 291 292 292 293 294 294 295 295 295 296 296 297 297 297 298 298 298 299 299 299 299 299 299 298 298 297 297 296 295 293 292 291 290 289 288 287 285 283 281 279 277 276
286 287 288 289 289 289 290 290 289 288 285 281 279 278 277 277 276 277 278 278 279 281 282 283 284 285 286 286 287 288 289 289 290 291 291 292 293 293 294 294 295 295 296 296 297 297 298 299 299 299 300 299 299 299 298 298 298 297 296 295 294 292 291 290 288 287 285 283 280 278 276 274 272 271
285 286 287 287 287 288 288 288 288 287 285 282 280 277 276 276 275 276 276 277 278 279 280 281 282 283 284 285 286 286 287 287 288 289 290 291 292 292 293 293 294 294 295 296 297 298 299 300 300 300 299 298 298 298 299 298 297 296 294 292 290 289 287 285 283 281 280 278 276 275 273 272 270 269
286 286 286 286 286 286 287 287 287 286 284 282 280 278 276 275 275 275 276 276 277 278 279 280 281 282 283 283 284 285 285 286 287 289 289 290 291 292 293 293 294 295 296 297 298 299 300 300 299 298 298 299 299 299 299 297 295 293 290 287 285 283 281 279 278 277 276 276 276 275 274 273 272 269
286 286 286 286 286 286 286 286 286 285 283 281 279 277 276 275 275 275 275 276 277 278 278 279 280 281 282 283 283 284 285 286 288 289 290 291 292 293 293 294 295 296 297 298 299 300 299 299 298 299 300 301 301 300 298 295 293 290 286 282 281 280 279 278 277 277 277 276 276 276 275 274 272 270
287 287 287 287 287 287 287 286 285 284 283 281 280 278 276 276 275 275 275 276 277 278 278 279 280 282 283 284 285 286 287 288 289 290 291 292 293 293 294 295 297 298 298 298 299 299 299 298 300 302 304 303 301 299 298 295 291 287 283 281 280 279 278 278 278 278 278 277 276 276 275 273 271 269
289 288 288 288 288 287 287 286 286 285 283 282 281 279 278 277 277 277 277 278 278 279 280 281 282 283 285 286 287 288 289 290 290 291 292 293 293 295 296 297 298 298 297 298 298 298 298 300 303 306 305 301 298 299 298 294 288 285 283 282 280 278 278 279 280 280 279 278 277 275 274 272 271 270
289 289 288 288 288 287 286 286 285 285 284 283 282 281 280 279 279 279 279 280 280 282 283 284 284 285 286 287 289 290 291 291 292 293 294 294 295 296 297 298 299 297 296 297 297 296 298 302 307 307 303 298 297 298 296 290 287 286 283 281 280 280 280 281 281 280 278 277 276 275 274 273 271 270
288 288 288 288 287 286 286 285 284 284 283 283 283 282 281 281 281 281 281 281 281 282 283 284 285 286 287 288 289 291 291 292 293 294 295 295 295 295 296 297 297 295 294 295 294 295 300 305 307 305 301 299 300 297 292 288 287 284 281 279 280 281 282 282 281 278 276 275 273 273 272 271 270 269
287 287 287 286 286 285 285 284 283 283 282 282 282 282 282 282 281 281 281 282 282 283 283 283 284 285 287 288 289 290 291 293 294 295 294 292 291 291 293 295 293 290 290 291 291 294 299 304 305 302 299 300 301 295 290 290 288 283 280 279 280 280 280 280 279 277 276 275 273 271 269 268 267 265
286 286 285 285 284 284 283 283 283 283 283 283 283 282 282 282 282 282 283 283 283 283 283 284 285 286 287 288 289 290 292 293 293 292 289 286 286 288 289 288 284 283 286 287 289 293 296 300 302 300 296 297 297 290 287 292 293 290 285 281 278 278 278 277 277 277 276 275 273 271 269 266 264 261
286 286 285 285 285 284 284 284 284 284 283 283 283 282 282 282 283 284 285 286 286 286 286 286 287 288 289 290 291 291 293 292 289 286 283 281 282 283 281 278 277 279 282 284 288 292 294 295 298 298 295 293 289 281 280 289 293 294 292 287 280 277 276 275 274 274 274 274 271 268 266 263 261 259
286 286 285 285 285 285 285 285 284 284 283 283 282 282 283 283 284 284 286 288 289 289 289 288 288 289 291 292 291 291 292 289 283 281 280 279 279 278 275 274 276 277 278 281 285 289 290 291 295 296 294 290 285 279 279 284 289 292 293 290 283 277 274 273 271 270 270 271 268 264 262 259 256 255
287 286 286 286 285 284 283 283 282 282 281 281 281 282 282 283 283 283 284 284 285 286 285 285 288 290 291 290 289 289 289 283 279 280 281 279 277 275 273 273 275 276 277 280 283 284 286 289 292 292 287 282 280 278 279 282 288 290 290 287 283 277 272 271 270 268 268 267 266 263 261 258 257 258
287 286 286 285 285 284 284 283 282 281 280 280 279 279 278 278 279 281 281 278 274 272 273 278 284 288 287 285 284 283 282 280 279 281 282 280 276 274 271 271 273 275 277 280 282 283 285 288 290 288 280 273 271 273 277 281 286 289 287 283 278 274 271 270 269 267 266 265 263 262 261 259 259 261
286 285 285 284 284 284 284 283 283 282 282 281 280 278 276 274 271 272 273 273 271 270 271 275 280 283 282 281 280 279 280 281 281 281 281 280 276 272 269 269 272 275 277 280 280 281 284 287 288 285 277 269 267 269 274 278 283 285 285 282 277 272 269 269 269 267 264 262 261 260 260 260 260 261
286 285 285 285 284 284 284 284 284 284 284 283 282 280 278 274 267 262 263 265 268 271 272 273 277 281 282 281 280 281 283 284 282 279 278 277 273 268 266 268 272 274 275 277 278 280 282 284 285 283 278 273 269 268 270 272 271 270 273 277 278 275 270 267 267 266 264 262 261 260 260 260 260 261
288 288 288 287 287 287 287 286 285 285 285 285 284 283 281 278 272 266 262 261 262 265 267 271 276 280 280 278 279 282 284 282 279 278 278 275 269 264 264 268 272 274 275 276 276 278 281 284 284 281 277 274 271 268 267 265 261 260 266 272 276 275 272 267 265 265 264 264 263 262 262 261 261 263
292 292 292 292 292 292 291 291 290 290 290 289 288 287 285 281 277 272 267 263 262 264 266 271 275 278 277 276 277 279 279 277 276 277 279 276 269 263 262 267 272 275 276 276 276 278 282 285 285 278 272 269 268 266 264 262 259 262 269 273 273 274 275 272 267 263 263 264 264 264 264 264 264 265
298 298 298 298 298 298 299 300 299 298 297 296 294 290 287 282 278 272 267 263 262 263 266 270 274 275 275 276 276 274 273 273 274 275 277 277 272 265 263 267 272 275 275 276 277 279 281 283 281 274 267 265 264 261 260 260 261 265 270 273 273 273 273 272 268 265 264 263 263 264 264 265 265 266
303 303 302 302 302 303 303 303 302 300 301 303 301 298 294 289 282 276 272 269 267 267 268 271 274 275 276 277 276 274 272 272 273 274 276 277 274 269 268 270 274 276 274 274 275 277 278 279 276 270 264 262 261 259 258 260 263 266 269 272 272 271 268 266 266 265 264 263 263 263 263 264 264 265
304 304 304 304 304 304 304 305 304 303 305 308 309 307 304 298 289 281 278 277 275 273 272 274 275 276 276 276 274 273 272 271 272 274 276 276 273 271 272 275 276 276 274 273 273 275 276 274 271 268 264 262 261 259 259 260 262 264 266 267 267 266 265 263 261 260 260 262 262 262 263 263 264 264
308 306 305 304 304 303 303 303 303 303 304 307 309 308 306 303 297 288 282 279 278 275 274 273 273 272 271 270 270 270 270 270 272 275 277 276 273 272 273 275 275 274 273 271 272 274 274 271 268 268 268 267 264 262 261 260 261 262 263 262 262 262 263 263 262 261 261 262 262 263 264 264 265 266